Race Results for
Folsom Early Bird Crit
Folsom, CA
(Event Information)
View By:
Criterium on 01/30/2010

Note: Ranking points are NOT upgrade points. An explanation of ranking points can be found here.


Men - Pro/Cat 1/2

 Place Points NameCity, StateTime USAC #BibTeam
1199.48Jan Weissenberger   San Francisco, CA00:00.0 186678  18 SAFEWAY/Bicycles Plus/PureRed Creative
2204.91Peter Graf   Sacramento, CA00:00.0 218511  57 Wells Fargo
3210.35Collin Samaan   Fair Oaks, CA00:00.0 196233  13 
4215.78Phillip Snodgrass   Dallas, TX00:00.0 266817  32 Wells Fargo Racing
5221.22Chad Gerlach   West Sacramento, CA00:00.0 50138  Health is Wealth
6226.66Randy Bramblett   San Francisco, CA00:00.0 187194  43 WillIams Cycling
7232.09Michael Jasinski   Rocklin, CA00:00.0 269476  Chico Corsa Cycling Club
8237.53Judd Van Sickle   Sacramento, CA00:00.0 127052  17 Rocknasium
9242.96Nathan Freed   Tahoe City, CA00:00.0 86484  Team Clif Bar
10248.40John Bergmann   Albany, CA00:00.0 187522  34 Team Clif Bar
11253.83Keith DeFiebre   Prunedale, CA00:00.0 9046  28 HDR p/b Lombardi Sports
12259.27Joshua Carling   Rancho Cordova, CA00:00.0 234584  45 Williams Cycling
13264.70John Fairbanks   Sacramento, CA00:00.0 83306  SAFEWAY/Bicycles Plus/PureRed Creative
14270.14Carmi Schulman   Seattle, WA00:00.0 200292  14 Sportgenic/Squadra Ovest
15275.57Brandon Trafton   Sacramento, CA00:00.0 240033  16 California Giant Berry Farms/Specialized
16281.01Keith Hillier   Millbrae, CA00:00.0 276108  53 Davis Bike Club
17286.45Maxim Jenkins   Citrus Heights, CA00:00.0 195652  UnitedHealthcare P.B. Maxxis
18291.88Sergei Badeka   Palo Alto, CA00:00.0 118797  54 BPG / Monte Velo
19297.32Michael Jacques   Portola Valley, CA00:00.0 72022  30 Garrison Institutional/tbs Teas
20302.75Gregory White   Lafayette, CA00:00.0 246669  26 Davis Bike Club
21308.19Michael Cordova   Chester, CA00:00.0 207547  46 Chico Corsa
22313.62Mark Wisecup   Santa Rosa, CA00:00.0 145594  44 
23319.06Nicholas Oliver   El Dorado Hills, CA00:00.0 271541  10 Wells Fargo Racing
24324.49Gerald Roberts   Sacramento, CA00:00.0 30073  19 Team Bicycles Plus / Sierra Nevada
25329.93Chris Ott   San Jose, CA00:00.0 26920  12 Zenn Racing Team
26335.37Rob Cady   Elk Grove, CA00:00.0 49774  35 Team Zenn
27340.80Patrick McClurg   Citrus Heights, CA00:00.0 48984  31 Folsom Bike
28346.24Jeremiah Holdway   Sparks, NV00:00.0 55281  29 
29351.67Max Polin   Davis, CA00:00.0 228684  39 River City Racing
30357.11Yacov Spivak (1 - Cat2)   Fair Oaks, CA00:00.0 241816  51 Chico Corsa
31362.54Sean Smith   Oakland, CA00:00.0 204018  23 Cal Giant Strwaberries
32367.98Frank Marrs   Atlanta, GA00:00.0 272691  Davis Bike Club
33373.41Nathanael Christensen   Clements, CA00:00.0 239919  48 Delta Velo
34378.85Dylan Seguin   Boise, ID00:00.0 44296  47 Team Clif Bar
35384.28Hanan Alves-Hyde   Albany, CA00:00.0 234966  24 Proman Hit Squad
36389.72Michael O'Rourke   Auburn, CA00:00.0 204496  11 SAFEWAY/Bicycles Plus/PureRed Creative
37395.16Matthew Obregon   Folsom, CA00:00.0 232613  49 Team Bicycles Plus / Sierra Nevada
38400.59Tom Fahey   Lodi, CA00:00.0 54092  27 Webcor Alto Velo
39406.03Daniel Bryant   Carmichael, CA00:00.0 195929  37 Folsom Bike
40411.46Gregory Gambetta   Sacramento, CA00:00.0 212916  38 Folsom Bike
41416.90Jonathan Eropkin   Fresno, CA00:00.0 197844  21 SAFEWAY/Bicycles Plus/PureRed Creative
42422.33Russell White   Lafayette, CA00:00.0 236024  25 Davis Bike Club
43427.77Dan Martin   Pleasanton, CA00:00.0 179386  SAFEWAY/Bicycles Plus/PureRed Creative
44David Miller   00:00.0  42 Chico Corsa
45438.64Doran Mori   Oakland, CA00:00.0 196267  40 Team Clif Bar
46444.08Nick Theobald   Burlingame, CA00:00.0 35297  15 SAFEWAY/Bicycles Plus/PureRed Creative
47449.51Scott Fonseca   Fair Oaks, CA00:00.0 204715  20 Team Zenn
48454.95Jeffrey Galland   Paradise, CA00:00.0 127804  CHICO CORSA/SIERRA NEVADA
49460.38Tom Skiles   Salinas, CA00:00.0 169701  22 Team Zenn
DNFJenson Lee   Saratoga, CA00:00.0 212393  
DNFNorman Zellers   El Segundo, CA00:00.0 140740  36 Great Basin Imaging
DNFRichard Bradley   Sacramento, CA00:00.0 223944  41 EMC
DNFMatthew Ream   Verdi, NV00:00.0 211441  33 VOS Gladiator
DNFDylan Clark   Auburn, CA00:00.0 243069  50 
DNFJoe Iannarelli   Vacaville, CA00:00.0 195783  52 Team Clif Bar

Men - Cat 1/2/3 - Master - 35-99

 Place Points NameCity, StateTime USAC #BibTeam
1233.24Judd Van Sickle   Sacramento, CA00:00.0 127052  101 Rocknasium
2238.51Jan Weissenberger   San Francisco, CA00:00.0 186678  100 SAFEWAY/Bicycles Plus/PureRed Creative
3243.77Michael O'Rourke   Auburn, CA00:00.0 204496  108 SAFEWAY/Bicycles Plus/PureRed Creative
4249.04Michael Pugh   Davis, CA00:00.0 28820  123 Team Zenn
5254.31Chad Gerlach   West Sacramento, CA00:00.0 50138  114 Health is Wealth
6259.57Keith DeFiebre   Prunedale, CA00:00.0 9046  119 
7264.84Jeffrey Galland   Paradise, CA00:00.0 127804  115 CHICO CORSA/SIERRA NEVADA
8270.10Norman Zellers   El Segundo, CA00:00.0 140740  153 VOS
9275.37Vincent Gee   Sacramento, CA00:00.0 13001  146 Pacific State Bank
10280.64Tom Fahey   Lodi, CA00:00.0 54092  145 Webcor Alto Velo
11285.90Chris Ott   San Jose, CA00:00.0 26920  107 Zenn Racing Team
12291.17Andrew Lancashire   Elk Grove, CA00:00.0 218734  136 Team Zenn
13296.44Scott Peifer   Granite Bay, CA00:00.0 265877  139 Folsom Bike
14301.70Bob Delp   Folsom, CA00:00.0 9138  137 Foslom Bike
15306.97Jason Brown   Lodi, CA00:00.0 53115  121 Kinetic Cycles/GBI
16312.23Rodney Spradlin   El Dorado Hills, CA00:00.0 122266  104 FCI Commercial Capital
17317.50Jason Grefrath   Sacramento, CA00:00.0 281883  148 Taleo
18322.77Monte Boyle   Simms, MT00:00.0 218669  143 Team Clover
19328.03Dennis Baker   Sacramento, CA00:00.0 255279  154 Sacramento Golden Wheelmen
20333.30Aaron Hunter   Santa Cruz, CA00:00.0 215194  113 Kinetic Cycles/GBI
21338.57Patrick McClurg   Citrus Heights, CA00:00.0 48984  149 Folsom Bike
22343.83Dave Kause (1 - Cat2)   Sacramento, CA00:00.0 175157  112 ShrinersQS Cycling Team
23349.10Andre Tenthorey   Granite Bay, CA00:00.0 76561  144 Sacramento Golden Wheelmen
24354.37Rich Mader   Sacramento, CA00:00.0 222996  111 Zenn Racing Team
25359.63Tom Skiles   Salinas, CA00:00.0 169701  140 Team Zenn
26364.90Scott Leland   Reno, NV00:00.0 179817  132 Unattached
27370.16Harold Johnson (1 - Cat1)   Mill Valley, CA00:00.0 17952  129 Olympic Club
28375.43Sean Smith   Oakland, CA00:00.0 204018  141 Cal Giant Strwaberries
29380.70Robert Pasco   Belmont, CA00:00.0 136970  142 SAFEWAY/Bicycles Plus/PureRed Creative
30385.96Tony Reid   Sacramento, CA00:00.0 29458  105 SAFEWAY/Bicycles Plus/PureRed Creative
31391.23Jason Snovel   Sacramento, CA00:00.0 268577  134 Rocknaisum
32396.50Peter Allen   Fair Oaks, CA00:00.0 46996  128 SAFEWAY/Bicycles Plus/PureRed Creative
33401.76Michael Ricks   Stockton, CA00:00.0 250319  126 Chico Corsa
34407.03Rob Cady   Elk Grove, CA00:00.0 49774  151 Team Zenn
35412.29Jess Raphael   Napa, CA00:00.0 221460  125 SAFEWAY/Bicycles Plus/PureRed Creative
36417.56Daniel Prater   Davis, CA00:00.0 28612  133 Someguys Cycling
37422.83Alvaro Mosquera   Sacramento, CA00:00.0 236809  135 Team Bicycles Plus / Sierra Nevada
38428.09Gregory Gambetta   Sacramento, CA00:00.0 212916  155 Folsom Bike
39433.36John Fairbanks   Sacramento, CA00:00.0 83306  117 SAFEWAY/Bicycles Plus/PureRed Creative
40438.63Scott Fonseca   Fair Oaks, CA00:00.0 204715  116 Zenn Racing Team
41443.89Daniel Bryant   Carmichael, CA00:00.0 195929  120 Vitamin Water/Folsom Bike
42449.16Fred Ramos   Davis, CA00:00.0 195221  106 Sacobgyn.com Cycling Team
43454.42Chad DeMasi   Davis, CA00:00.0 158049  118 Rocknasium
44459.69Steve Thomsen   Reno, NV00:00.0 245436  124 
45464.96Matthew Ream   Verdi, NV00:00.0 211441  150 VOS Gladiator
46470.22Patrick Tafoya   Redwood City, CA00:00.0 34910  103 SAFEWAY/Bicycles Plus/PureRed Creative
47475.49Dan Martin   Pleasanton, CA00:00.0 179386  110 SAFEWAY/Bicycles Plus/Pure Red Creative
48480.76Devin Koch   Truckee, CA00:00.0 260704  147 Dolce Vita
49486.02C Scott Lee   Sacramento, CA00:00.0 103903  152 Team City
50491.29Jeff Poulsen   Arnold, CA00:00.0 28533  127 Team Bicycles Plus / Sierra Nevada
51496.55Richard Tabuso   Roseville, CA00:00.0 274439  130 Rio Strada
52501.82Jonathan Eropkin   Fresno, CA00:00.0 197844  131 SAFEWAY/Bicycles Plus/PureRed Creative
53507.09Nick Theobald   Burlingame, CA00:00.0 35297  102 SAFEWAY/Bicycles Plus/PureRed Creative
54512.35Kurt Bickel   Upland, CA00:00.0 219611  122 Joes Pro Bikes
DNSDarryl Moxley   Orangevale, CA00:00.0 86490  109 Bicycles Plus/Sierra Nevada
DNFRichard Bradley   Sacramento, CA00:00.0 223944  156 EMC
DNFPeter Graf   Sacramento, CA00:00.0 218511  157 Wells Fargo
DNFHunter Ziesing   Bel Tiburon, CA00:00.0 39478  138 Echelon Grand Fondo

Men - Cat 3

 Place Points NameCity, StateTime USAC #BibTeam
1318.22Paul Morris   Carson City, NV00:00.0 294725  318 Nevada Cycling
2324.19Andrew Lancashire   Elk Grove, CA00:00.0 218734  326 Team Zenn
3330.15Christopher Dudley   Reno, NV00:00.0 285988  314 Nevada Cycling
4336.11Steven Larsen   Placerville00:00.0 203934  319 Rio Strada
5Joshua Brand   00:00.0  317 
6348.03Chad DeMasi   Davis, CA00:00.0 158049  312 Rocknasium
7354.00Michael Ricks   Stockton, CA00:00.0 250319  316 Chico Corsa
8359.96Jason Snovel   Sacramento, CA00:00.0 268577  323 Rocknasium
9365.92Calder Daenzer   State College, PA00:00.0 227508  331 Team Oakland Cycling
10371.88Scott Peifer   Granite Bay, CA00:00.0 265877  329 Folsom Bike
11377.84Matthew Dearing   Fresno, CA00:00.0 8970  310 Central Valley Cycling
12383.80Brian Zimny   Sacramento, CA00:00.0 61117  330 Team City Bikes
13389.77Karl Wurzbach   Fairfield, CA00:00.0 260329  300 Davis Bike Club
14395.73Jake Mestre   Reno, NV00:00.0 205653  327 Reno Wheelmen
15401.69Bob Delp   Folsom, CA00:00.0 9138  328 Folsom Bike
16407.65Devin Koch   Truckee, CA00:00.0 260704  333 Dolce Vita
17413.61Mark Robertson   Oakland, CA00:00.0 237380  309 Taleo Racing
18419.58Robert Orcutt   Scotts Valley, CA00:00.0 269340  305 Webcor/Alto Velo
19425.54Scot Ferguson   Reno, NV00:00.0 195008  324 UNR
20AJ Snoval   00:00.0  322 Davis Bike Club
21437.46Joseph Christensen   Clements, CA00:00.0 240832  313 Rocket Sports
22443.42Torey Philipp   El Dorado Hills, CA00:00.0 263055  311 Team Specialized Racing Juniors
23449.39Jason Grefrath   Sacramento, CA00:00.0 281883  332 Taleo
24455.35Joshua Bullock   Sacramento, CA00:00.0 153414  307 Chico Corsa/Sierra Nevada
25461.31Lee Millon   Winters, CA00:00.0 254073  303 Davis Bike Club Race Team
26467.27Lutz Braun   Clovis, CA00:00.0 258096  302 Central Valley Cycling
27473.23Roger Hogan   Fresno, CA00:00.0 285192  304 California Giant Cycling
28479.20Cody Tapley   Citrus Heights, CA00:00.0 234610  306 Davis Bike club
29485.16Thomas Dillon   Los Altos Hills, CA00:00.0 50011  315 Pennisula Velo Pomodoro
30491.12Glenn Chadwick   Sacramento, CA00:00.0 119039  320 Hot Italian
31497.08Nathan Williams   El Dorado Hills, CA00:00.0 238050  325 
32503.04Scott Leland   Reno, NV00:00.0 179817  321 UNR
33509.01Samuel Bolster   Camino, CA00:00.0 258704  301 Team Kinetic Cycles
DNFGivargis Betoshana   Ripon, CA00:00.0 55276  308 Fun Sport Bikes Cycling Team

Men - Cat 3/4 - Master - 30-99

 Place Points NameCity, StateTime USAC #BibTeam
1350.39Matthew Dearing   Fresno, CA00:00.0 8970  211 Central Valley Cycling
2355.71Michael Ricks   Stockton, CA00:00.0 250319  252 Chico Corsa
3361.04Douglas Rowland   Davis, CA00:00.0 295966  234 Davis Bike Club
4366.36Karl Wurzbach   Fairfield, CA00:00.0 260329  244 Davis Bike Club
5371.69Roger Hogan   Fresno, CA00:00.0 285192  219 California Giant Cycling
6377.01Steve Thomsen   Reno, NV00:00.0 245436  247 
7382.34Timothy Bisson   San Jose, CA00:00.0 221552  203 BBC
8387.66Joshua Bullock   Sacramento, CA00:00.0 153414  207 Chico Corsa/Sierra Nevada
9392.99Mitch Boehs   Livingston, CA00:00.0 237309  204 Fun Sport Bikes Cycling Team
10398.31Kevin Tufts   Cameron Park, CA00:00.0 243434  240 Bicycle Planet
11403.64John Novikoff   Rocklin, CA00:00.0 239990  246 Bike Planet
12408.96Craig Dolley   El Dorado Hills, CA00:00.0 158073  213 
13414.29Nabil Samaan   Fair Oaks, CA00:00.0 177518  235 
14419.61Lutz Braun   Clovis, CA00:00.0 258096  206 Central Valley Cycling
15424.94Paul Malenke   Roseville, CA00:00.0 82738  224 Team Bicycles Plus/Sierra Nevada
16430.26Kevin Willitts   S Lake Tahoe, CA00:00.0 192774  249 Team Bicycles Plus / Sierra Nevada
17435.58Thomas Dillon   Los Altos Hills, CA00:00.0 50011  248 Pennisula Velo Pomodoro
18440.91Michael Claudio   West Sacramento, CA00:00.0 248052  208 Ikon Cycles Race Team
19446.23Jeffrey Purcell   Hughson, CA00:00.0 53815  231 InfoVista Cycling Team
20451.56David Maddux   Arnold Ca00:00.0 287009  222 Central Valley Cycling
21456.88Oscar Nunez   Menlo Park, CA00:00.0 220085  227 BBC
22462.21Rod Fernandez   Dixon, CA00:00.0 265576  216 Davis Bike Club
23467.53Jeff Watson   Elk Grove, CA00:00.0 293136  242 Team Bicycles Plus Sierra Nevad
24472.86Monte Boyle   Simms, MT00:00.0 218669  205 Team Clover
25478.18Joseph Staron   Sacramento, CA00:00.0 132859  238 
26483.51Michael Smith   Chico, CA00:00.0 110466  237 Chico Corsa
27488.83Rowel (Rob) Palisoc   Berkeley, CA00:00.0 195972  254 Sacramento Golden Wheelmen
28494.16Ryan Odell   Sacramento, CA00:00.0 288200  228 Davis Bike Club
29499.48Anthony Eng   El Cerrito, CA00:00.0 245065  214 Kaiser Permanente/ Team Oakland Cycling
30504.81Lance Newey   Fair Oaks, CA00:00.0 202161  250 Team Bicycles Plus / Sierra Nevada
31510.13Scott Hellam   Fresno, CA00:00.0 287510  218 Rubber Soul/CSC
32515.45Greg Tripoli   Hanford, CA00:00.0 281420  239 Rubber Soul/CSC Racing Team
33520.78Jorge Rotea (1 - Cat4)   Sunnyvale, CA00:00.0 224270  233 Team Integrate/FFBC powered by Chipotle
34526.10Allen Jackson   Sonora, CA00:00.0 260263  220 Wells Fargo Racing Team
35531.43Mark Fiori   Folsom, CA00:00.0 112253  217 Davis Bike Club
36536.75Chris Parod   Mather, CA00:00.0 270992  229 Team Bicycles Plus/Sierra Nevada
37542.08Rafael Neiman   Loomis, CA00:00.0 270869  226 Team Bicycles Plus/Sierra Nevada
38547.40Mark Robertson   Oakland, CA00:00.0 237380  232 Taleo Racing
39552.73Matthew Davis   Reno, NV00:00.0 237845  209 
40558.05Ryan Ettl   Folsom, CA00:00.0 252994  251 Bicycle Planet
41563.38Zach Hamm (2 - Cat4)   Folsom, CA00:00.0 221161  253 Team Bicycles Plus / Sierra Nevada
42568.70Fred Schnaars   Davis, CA00:00.0 65032  245 Davis Bike Club
43574.03Jeffrey Weaver   Sacramento, CA00:00.0 290926  243 Davis Bike Club
44579.35Matthew Esselstrom   Modesto, CA00:00.0 277510  215 Fun Sport Bikes Cycling Team
45584.68Jeff Sawyer   Rocklin, CA00:00.0 220240  236 Team Hammer Nutrition
46590.00Rick Berry   Kingsburg, CA00:00.0 271131  201 Rubber Soul/CSC Racing Team
DNFSteve Ball   Napa, CA00:00.0 59338  200 Eagle Racing Team
DNFGivargis Betoshana   Ripon, CA00:00.0 55276  202 Fun Sport Bikes Cycling Team
DNFK Scott Davis   Palo Alto, CA00:00.0 257793  210 QuadCycles
DNFChad DeMasi   Davis, CA00:00.0 158049  212 Rocknasium
DNFFrank Lunceford Sr   El Dorado Hills, CA00:00.0 273343  221 Bicycle Planet
DNFMorgan Mahanke   El Dorado Hills, CA00:00.0 226577  223 Team Bicycles Plus/Sierra Nevada
DNFCharles McCann   Folsom, CA00:00.0 220709  225 Bicycle Planet
DNFBrian Priddin   El Dorado, CA00:00.0 178247  230 
DNFMatt Tufts   Placerville, CA00:00.0 240212  241 Bicycle Planet
DNFPaul Tindal   South Lake Tahoe, CA00:00.0 153758  255 

Men - Cat 4

 Place Points NameCity, StateTime USAC #BibTeam
1393.88Anthony Ferretti   Oroville, CA00:00.0 283185  413 Chico Corsa
2398.23Bob McCamish   Roseville, CA00:00.0 285998  424 Rio Strada Racing
3402.59Ryan Ettl   Folsom, CA00:00.0 252994  412 Bicycle Planet
4406.95Anthony Eng   El Cerrito, CA00:00.0 245065  410 Kaiser Permanente/ Team Oakland Cycling
5411.31Timothy Bisson   San Jose, CA00:00.0 221552  402 BBC
6415.67Robby Liebherr   Reno, NV00:00.0 237449  421 Nevada Cycling
7420.03Michael Stoner   Tucson, AZ00:00.0 287280  440 Davis Bike Club
8424.38Garrett Hankins   Carmichael, CA00:00.0 298571  416 Team City
9428.74Michael Claudio   West Sacramento, CA00:00.0 248052  405 Ikon Cycles Race Team
10433.10Douglas Rowland   Davis, CA00:00.0 295966  436 Davis Bike Club
11437.46Greg Tripoli   Hanford, CA00:00.0 281420  441 Rubber Soul/CSC Racing Team
12441.82Whitney DeBoice   Rancho Cordova, CA00:00.0 209192  448 Team City
13446.18John Novikoff   Rocklin, CA00:00.0 239990  452 
14450.53Ryan Odell   Sacramento, CA00:00.0 288200  429 Davis Bike Club
15454.89Michael Smith   Chico, CA00:00.0 110466  439 Chico Corsa
16459.25Kalman Zeiger   San Francisco, CA00:00.0 237651  446 Godspeed Courier
17463.61Bryan Warhold   Sacramento, CA00:00.0 148346  443 Ikon Cycles Race Team
18467.97Matt Tufts   Placerville, CA00:00.0 240212  442 Bicycle Planet
19472.33Chris Dufour   Pleasanton, CA00:00.0 302616  409 Taleo Racing
20476.68Jeffrey Weaver   Sacramento, CA00:00.0 290926  445 Davis Bike Club
21481.04Scott Hellam   Fresno, CA00:00.0 287510  417 Rubber Soul/CSC
22485.40Morgan Mahanke   El Dorado Hills, CA00:00.0 226577  423 Team Bicycles Plus/Sierra Nevada
23489.76Rob Brandt   Ennis, MT00:00.0 298803  404 Kryki Sports
24494.12Kayden Kelly   Auburn, CA00:00.0 101369  419 Bicycle Emporium
25lane O'SULLIVAN   00:00.0  427 
26502.83Jeff Sawyer   Rocklin, CA00:00.0 220240  438 Team Hammer Nutrition
28507.19Anthony ODell   Orangevale, CA00:00.0 287267  430 Bicycle Planet
29511.55Richard Coyle   Granite Bay, CA00:00.0 277158  449 Rio
30515.91Jorge Rotea   Sunnyvale, CA00:00.0 224270  435 Team Integrate/FFBC powered by Chipotle
31520.27Kevin Tufts   Cameron Park, CA00:00.0 243434  450 
32524.63James Phillips   Santa Cruz, CA00:00.0 220094  451 
33528.98Mitch Boehs   Livingston, CA00:00.0 237309  403 Fun Sport Bikes Cycling Team
34533.34Stephen Grimes   Sacramento, CA00:00.0 261152  415 Davis Bike Club
35537.70Jonathan Christensen   Clements, CA00:00.0 250315  453 
36542.06Stephen Wassather   Santa Cruz, CA00:00.0 269058  444 Rio Strada Racing
37546.42Rowel (Rob) Palisoc   Berkeley, CA00:00.0 195972  433 SGW/City Bicycle Works
38550.78Renzo Bernales   Sacramento, CA00:00.0 76203  400 Team City Bikes
39555.13Robert Lo   Suisun City, CA00:00.0 90804  447 Eagle
40559.49Matthew Esselstrom   Modesto, CA00:00.0 277510  411 Fun Sport Bikes Cycling Team
41563.85Adam Lucero   Santa Cruz, CA00:00.0 257679  422 UC Santa Cruz Cycling
42568.21Mark Fiori   Folsom, CA00:00.0 112253  414 Davis Bike Club
43572.57Craig Dolley   El Dorado Hills, CA00:00.0 158073  408 
44576.93Matthew Davis   Reno, NV00:00.0 237845  406 
45581.28Sean Odom   Carmichael, CA00:00.0 223061  431 Rio Strada Racing
46585.64Michael Painter   Chico Ca00:00.0 289184  432 Chico Corsa Cycling Club
47590.00Oscar Nunez   Menlo Park, CA00:00.0 220085  426 BBC
DNFRick Berry   Kingsburg, CA00:00.0 271131  401 Rubber Soul/CSC Racing Team
DNFK Scott Davis   Palo Alto, CA00:00.0 257793  407 QuadCycles
DNFMichael Heywood   San Francisco, CA00:00.0 268236  418 Kovarus / ABTA
DNFAaron Korth   Reno, NV00:00.0 306567  420 Scheels
DNFCharles McCann   Folsom, CA00:00.0 220709  425 Bicycle Planet
DNFRyan Oakes   Chico, CA00:00.0 258824  428 Bicycle Planet
DNFBrian Priddin   El Dorado, CA00:00.0 178247  434 
DNFNick Ruana   Reno, NV00:00.0 221854  437 Alta Alpina Cycling Club

Men - Cat 5

 Place Points NameCity, StateTime USAC #BibTeam
1520.05scott heather   Chico, CA00:00.0 306577  529 chico corsa
2521.57Michael Gaiman   San Francisco, CA00:00.0 299144  531 Mission Cycling
3Joe Dickerson   00:00.0  544 UC Davis
4524.61Greg Fales   Orangevale, CA00:00.0 275788  534 Team Bicycles Plus/Sierra Nevada
5Chas Potts   00:00.0  549 Lenovo
6527.65Eugene Kim   Huntington Beach, CA00:00.0 303809  521 Mission Cycling
7529.17Jonathan Pettengill   Reno, NV00:00.0 287637  514 Lenovo
8530.69Alexander Kizis   Reno, NV00:00.0 273691  520 Atlantis
9532.22David Nasca   Roseville, CA00:00.0 41192  516 
10533.74Reid Weber   Reno, NV00:00.0 305011  502 
11535.26Michael White   Folsom, CA00:00.0 299962  501 Team Bicycles Plus/Sierra Nevada
12536.78Gregory Hinge   Reno, NV00:00.0 304223  527 
13538.30Matthew Spaulding   Sacramento, CA00:00.0 279472  546 
14539.82Brian Ray   Sacramento, CA00:00.0 303250  509 
15541.34Scott Waters   Reno, NV00:00.0 298411  503 
16542.86Chris Dufour   Pleasanton, CA00:00.0 302616  536 Taleo Racing
17544.38Zachary Recine   Lone Tree, CO00:00.0 301212  508 
18545.90Nathaniel Powell   Antelope, CA00:00.0 288682  512 
19547.42Curtis Hong   Dublin, CA00:00.0 305875  526 Sac State
20548.94John Anner   Albany, CA00:00.0 303115  542 Berkeley Bicycle Club
21550.46clay dossa   Auburn, CA00:00.0 303734  537 Victory Velo
22551.98Chris Udarbe   Folsom, CA00:00.0 292859  504 
23553.50Marco Carvajal   San Francisco, CA00:00.0 305357  540 
24555.02Sage Bauers   Sacramento, CA00:00.0 257738  541 Beer
25556.55Joshua Lopez   Alamo, CA00:00.0 305647  518 Los Gatos Bicycle Racing Club
26558.07Mark Stern   Folsom, CA00:00.0 272223  505 
27559.59Daniel Pollard   Roseville, CA00:00.0 269166  513 Team Mad Cat
28561.11Kyle Zampaglione   San Jose, CA00:00.0 305974  500 SJBC
29562.63Eric Aguilera   Carson City, NV00:00.0 293392  543 Alta Alpina Cycling Club
30564.15WILLIE MYERS   Carmichael, CA00:00.0 306325  545 Team City
31565.67Robbie Farrens   Stockton, CA00:00.0 289433  533 DJs Produce
32567.19Robert Knaggs   Lodi, CA00:00.0 244287  548 Williams Cycling
33568.71Jon Keyzer   Fort Collins, CO00:00.0 298334  522 Chico Corsa Cycling Team
34570.23Justin Fahnestock   Englewood, CO00:00.0 304369  535 
35571.75Matt Chatlaong   Roseville, CA00:00.0 304797  539 Rio Strada Racing
36573.27ron faulk   Placerville, CA00:00.0 254588  532 NA
37574.79Joshua Lewis   Roseville, CA00:00.0 302680  519 
38576.31Lance Loveday   Auburn, CA00:00.0 305459  517 
39577.83Nicolas Jimenez   Golden, CO00:00.0 305250  525 Team Mad Cat
40579.36Mark Roberts   Sacramento, CA00:00.0 305748  507 
41580.88Ken Hill   Woodland, CA00:00.0 274292  528 Davis Bike Club
42582.40Josh Keel   Morgan Hill, CA00:00.0 194966  524 Rio Strada
43583.92Jeff Greer   Fairfield, CA00:00.0 243001  547 Eagle
44585.44Robert Smith   Gold River , CA00:00.0 299828  506 Rio Strada Racing
45Troy Yost   00:00.0  550 Team Revolutions
46588.48Troy Prather   Davis, CA00:00.0 304886  511 Team Mason Thomas
47590.00Owen Ransom   Davis, CA00:00.0 294967  510 Victory Velo
DNSChris KENDALL   00:00.0  523 
DNFNate Pearson   Reno, NV00:00.0 304845  515 
DNFMichael Cochran   Sacramento, CA00:00.0 297795  538 Bullseye - East Sac

Men - Masters - 45-99

 Place Points NameCity, StateTime USAC #BibTeam
1292.22Michael Pugh   Davis, CA00:00.0 28820  184 Echelon Grand Fondo
2300.20Michael O'Rourke   Auburn, CA00:00.0 204496  171 SAFEWAY/Bicycles Plus/PureRed Creative
3308.19Kurt Bickel   Upland, CA00:00.0 219611  182 Joes Pro Bikes
4316.17Hunter Ziesing   Bel Tiburon, CA00:00.0 39478  187 Echelon Grand Fondo
5324.15Fred Schnaars   Davis, CA00:00.0 65032  183 Davis Bike Club
6332.13Robert Pasco   Belmont, CA00:00.0 136970  189 SAFEWAY/Bicycles Plus/PureRed Creative
7340.12Jess Raphael   Napa, CA00:00.0 221460  185 SAFEWAY/Bicycles Plus/PureRed Creative
8348.10Peter Allen   Fair Oaks, CA00:00.0 46996  192 
9356.08Tony Reid   Sacramento, CA00:00.0 29458  169 SAFEWAY/Bicycles Plus/PureRed Creative
10364.07Nabil Samaan   Fair Oaks, CA00:00.0 177518  166 
11372.05Kenny Lane   Citrus Heights, CA00:00.0 274485  186 
12380.03Patrick Tafoya   Redwood City, CA00:00.0 34910  161 SAFEWAY/Bicycles Plus/PureRed Creative
13388.01Rodney Spradlin   El Dorado Hills, CA00:00.0 122266  163 FCI Commercial Capital
14396.00Kevin Willitts   S Lake Tahoe, CA00:00.0 192774  160 Team Bicycles Plus/Sierra Nevada
15403.98Richard Tabuso   Roseville, CA00:00.0 274439  196 
16411.96Mark Robertson   Oakland, CA00:00.0 237380  168 Taleo Racing
17419.94Andre Tenthorey   Granite Bay, CA00:00.0 76561  195 
18427.93Harold Johnson (1 - Cat1)   Mill Valley, CA00:00.0 17952  193 
19435.91Lee Millon   Winters, CA00:00.0 254073  173 Davis Bike Club Race Team
20443.89Bernard Silveria (1 - Cat2)   El Dorado Hills, CA00:00.0 94897  165 Unattached
21451.88David Maddux   Arnold Ca00:00.0 287009  174 Central Valley Cycling
22459.86Tracy Muegge   Gold River, CA00:00.0 51637  172 Team Bicycle Plus/Sierra Nevada
23467.84Rick Kile   Placerville, CA00:00.0 195955  191 
24475.82Dean Peckham (1 - Cat4)   Sacramento, CA00:00.0 159817  170 Unattached
25483.81Philip Blay   Folsom, CA00:00.0 274756  181 Folsom Bike
26491.79GARY SPEER   Oroville, CA00:00.0 272940  164 Oxyfuel Racing
27499.77Kristopher Spyrka   Alamo, CA00:00.0 207144  162 Taleo Racing
28507.76Brian Hitchman   Folsom, CA00:00.0 48419  177 Team Bicycles Plus/Sierra Nevada
29515.74Thomas Kellner   Sacramento, CA00:00.0 195574  176 Davis Bike Club
30523.72Vance Russell   Davis, CA00:00.0 157646  167 Davis Bike Club
31531.70Rod Fernandez   Dixon, CA00:00.0 265576  178 Davis Bike Club
32John Steggel   00:00.0  194 
33547.67Todd Doherty (1 - Cat3)   Davis, CA00:00.0 9701  179 DAVIS BIKE CLUB
DNFFrank Lunceford Sr   El Dorado Hills, CA00:00.0 273343  175 Bicycle Planet
DNFTodd Dambly   Folsom, CA00:00.0 212968  180 Bicycle Planet
DNFLance Newey   Fair Oaks, CA00:00.0 202161  188 
DNFJeff Poulsen   Arnold, CA00:00.0 28533  190 

Men - Masters - 55-99

 Place Points NameCity, StateTime USAC #BibTeam
1434.89Christopher Kolm   Moraga, CA00:00.0 254578  280 Taleo Racing
2448.99Jay Kinney   Placerville, CA00:00.0 125352  279 
3463.09Bruce Coffey   Newman, CA00:00.0 271696  285 
4477.19Michael Lynch   Ripon, CA00:00.0 180322  284 
5491.29Peter Piepul (1 - Cat3)   San Jose, CA00:00.0 28118  282 SJBC
6505.39Stuart Humpert   Napa, CA00:00.0 197375  277 ERT
7519.49Mac Carey   Pleasant Hill, CA00:00.0 249301  275 Taleo Racing
8533.59Casey Ford   Auburn, CA00:00.0 205700  287 
9547.70Bennie Weber   Lodi, CA00:00.0 203593  283 PSB/ Anderson Homes
10561.80Steve Grube   Sacramento, CA00:00.0 51158  276 Davis Bike Club
11575.90Sid Noyes   Eureka, CA00:00.0 54640  281 Echelon Gran Fondo/ZTeam
12590.00Bob Hasenick   Santa Rosa, CA00:00.0 272219  286 
DNFLeon Iannarelli   Vacaville, CA00:00.0 49838  278 Team Precision

Women - Cat 1/2/3

 Place Points NameCity, StateTime USAC #BibTeam
1320.85Elis Bradshaw   Oakland, CA00:00.0 208125  61 Touchstone Climbing
2334.53Marley Smith   Roseville, CA00:00.0 276961  74 Touchstone Climbing
3348.21Cody Graf (1 - Cat2)   Sacramento, CA00:00.0 248416  77 
4361.89Vanessa Drigo   Charlotte, NC00:00.0 257356  63 Touchstone CLimbing
5375.58Carol Irving   Woodland, CA00:00.0 17419  65 Touchstone Climbing
6389.26Kelly McDonald (1 - Cat1)   Davis, CA00:00.0 202178  69 Touchstone Climbing
7402.94Mary Elizabeth Maroon   Sacramento, CA00:00.0 219555  68 Touchstone Climbing
8416.62Heather Nielson   Seattle, WA00:00.0 237346  70 Touchstone Climbing
9430.30Marissa Axell   El Cerrito, CA00:00.0 269569  60 Touchstone Climbing
10443.98Nicole Dolney (2 - Cat2)   Sacramento, CA00:00.0 287219  62 Touchstone Climbing
11457.67Kimberley Payne (1 - Cat3)   Campbell, CA00:00.0 51589  71 Team Ohana Sport
12471.35Gina Lowe (3 - Cat2)   Redding, CA00:00.0 207849  67 Touchstone Climbing
13485.03Julie Porter   Auburn, CA00:00.0 176587  76 
14498.71Annie Malouin   Sacramento, CA00:00.0 188292  78 
15512.39Rita Szeto   Crockett, CA00:00.0 195322  75 Touchstone Climbing
16526.07Marian Jamison   Gloucester, MA00:00.0 230034  66 Velo Bella
17539.76April Hamlin   El Dorado Hills, CA00:00.0 266244  64 Touchstone Climbing
18553.44Heather Pryor (4 - Cat2)   Sacramento, CA00:00.0 289752  72 Touchstone Climbing
DNSKristina Seley   San Luis Obispo, CA00:00.0 223809  73 Touchstone Climbing

Women - Cat 4

 Place Points NameCity, StateTime USAC #BibTeam
1502.37Elizabeth Peres   Folsom, CA00:00.0 305938  554 Team Mad Cat
2511.13Jamii North   Portola Valley, CA00:00.0 219869  553 Ohana Sport
3519.90Vanessa Cairns   San Jose, CA00:00.0 282467  551 Team TIBCO
5528.66BobbiJo Price   Winner Sd00:00.0 296075  555 Team Tibco
5537.42Ellen Sherrill   South Lake Tahoe, CA00:00.0 299535  558 Alta Alpina
6546.18Sherri Lehman   Gold River, CA00:00.0 274098  559 Velo Bella
7554.95Pamela Spencer   Sacramento, CA00:00.0 305466  560 Revo
8563.71Marja Nousiainen   Menlo Park, CA00:00.0 203255  561 Team Roaring Mouse
9572.47Jill Eyres   Montara, CA00:00.0 282468  552 Team TIBCO
10581.24Katie Webb   El Dorado Hills, CA00:00.0 306839  556 Team Revolutions
11590.00Maryann Schrupp   Reno, NV00:00.0 288460  557 

Women - Masters - 35-99

 Place Points NameCity, StateTime USAC #BibTeam
1Lauraleen Fenech   San Francisco, CA00:00.0 224272  92 Team Bici Sport
2Soni Andreini Poulsen   Arnold, CA00:00.0 235758  91 Velo Bella
DNSPhyllis Olrich   Grass Valley, CA00:00.0 125288  90 Webcor/Alto Velo

Report missing or incorrect license numbers

Volkswagen
Sierra NevadaShimanoSpyBonk BreakerUSACDF
UCI USA Cycling is the official governing body for all disciplines of competitive cycling in the United States. The 501c3, membership-based organization aims both to achieve sustained success in international cycling competition and to grow competitive cycling in America while delivering an exceptional customer experience.
View Children's Online Privacy Protection Policy
US Olympic Committee